Location: Central Coast NSW, Australia
(33.2407°S, 151.4316°E)
Time: 01:25:44
(UTC+11:00)

N. Korean satellite - Visible Passes

Search period start: 23 October 2019 00:00
Search period end: 02 November 2019 00:00
Orbit: 455 x 508 km, 97.2° (Epoch: 21 October)

Date Brightness Start Highest point End Pass type
(mag) Time Alt. Az. Time Alt. Az. Time Alt. Az.
23 Oct 9.5 05:27:58 10° NE 05:31:02 24° ESE 05:34:08 10° SSE visible
24 Oct 10.5 05:04:30 10° E 05:05:57 12° ESE 05:07:24 10° SE visible
24 Oct 10.1 19:40:26 10° SSW 19:42:31 15° WSW 19:44:36 10° WNW visible
27 Oct 9.9 05:20:30 10° ENE 05:23:14 20° ESE 05:26:00 10° SSE visible
31 Oct 10.1 05:13:08 10° ENE 05:15:24 16° ESE 05:17:41 10° SSE visible
31 Oct 10.6 19:50:54 10° SW 19:51:54 11° WSW 19:52:55 10° W visible
